Tracking 19193 objects as of 23-Jun-2018
HD Live streaming from Space Station
objects crossing your sky now

FENGYUN 1C DEB

Track FENGYUN 1C DEB now!
10-day predictions


NORAD ID: 35183
Int'l Code: 1999-025DNP
Perigee: 621.9 km
Apogee: 769.2 km
Inclination: 98.8 °
Period: 98.5 minutes
Semi major axis: 7066 km
RCS: 0.0115 m2 (small)
Launch date: May 10, 1999
Source: People's Republic of China (PRC)
Launch site: Taiyaun Space Center, China (TSC)

Note: This is SATELLITE DEBRIS
aabbcc
Your satellite tracking list
Your tracking list is empty




NASA's NSSDC Master Catalog

Two Line Element Set (TLE):
1 35183U 99025DNP 18172.51799747 +.00000802 +00000-0 +16105-3 0  9999
2 35183 098.8441 078.2911 0104245 019.1471 341.3601 14.61469608262556
Source of the keplerian elements: AFSPC